SPAINSAT

Last updated on Sun Oct 06 2024 00:02:38 GMT+0000 (Coordinated Universal Time)

1 28945U 06007A 24279.04377539 -.00000206 00000+0 00000+0 0 9990 2 28945 0.0166 215.4096 0005412 343.5938 161.0062 1.00272892 68008
UTC large
Height (km)
Speed (km/s)
/
Latitude / Longitude
Inclination (degrees)
Orbital Period (minutes)
Azimuth
Elevation
Range (km)
Doppler Factor

Next 0 passes for location: London (51.5072 / 0.1276)

Sorry there are no passes over London.